Showing default

COSMOS 83, 1573

Orbit data source: Space-Track

COSMOS 83, 1573 is a payload satellite owned by OKB-10 (CIS) in LEO that was launched on Fri, 03 Sep 1965 UTC via a KOSMOS 65S3 launch vehicle from the Tyuratam Missile And Space Complex (TTMTR). Payload-class satellites include a variety of spacecraft equipped with specific instruments for various scientific and technological missions. These include communications satellites like Starlink; space stations such as the ISS; scientific satellites like the Hubble; Earth observation satellites from companies like Planet Labs, Umbra, and HawkEye 360; GPS; miniature CubeSats for education and research; and military/defense satellites.

Loading next visibility...
Identifier
1573, 1965-070D
Orbit
LEO
Country
Flag of CISCIS
Related business
Manufacturer
OKB-10
Mission
Spacecraft
Bus & Motor
STRELA-1 11F610, Unknown motor
Mass
50 kg wet, 50 kg dry
Launch date (UTC)
1965-09-03 (61 years ago)
Launch vehicle
KOSMOS 65S3
Launch site
Tyuratam Missile And Space Complex (TTMTR)
Object type
Payload
Rocket body
Debris
Shape & HBR
POLY, 1.1 m
Radar Cross Section
Medium (>0.1 m² and <1 m²)

Expand to show TLE details & history
Last TLE update: 17 hours ago

TLE from 17 hours ago
0 COSMOS 83
1  1573U 65070D   26266.83070769 -.00000078  00000-0  10609-3 0  9991
2  1573  56.0528  81.8565 0065945 205.8909 153.8687 12.41046739767453
Epoch: 2026-09-23T19:56Z
TLE epoch observation values (Epoch: 2026-09-23T19:56:13.144Z)
Latitude
-0.00008°
Longitude
140.12548°
Altitude
1,549.939 km
Speed
7.072 km/s
True Right ascension
05h 27m 25s
True Declination
0° 00' 00"
Sunlit
Object was in daylight at epoch
Visualization orbit readout
Latitude
Unknown
Longitude
Unknown
Altitude
Unknown
Speed
Unknown
Apparent Right ascension
Unknown
Apparent Declination
Unknown
Sunlit
N/A
Visualization observer readout
Local Sidereal Time
06:10:31
Azimuth
Unknown
Elevation
Unknown
Doppler factor
Unknown
Orbital elements
Apogee altitude
1,553.959 km
Perigee altitude
1,450.028 km
Semi-major axis
7,880.131 km
Eccentricity
0.00659
Inclination
56.0528°
RAAN
81.8565°
Arg. of periapsis
205.8909°
True anomaly
154.19907°
Mean anomaly
153.8687°
Eccentric anomaly
154.03413°
Mean motion
3.10272 °/min
Orbital period
116.03 mins
BSTAR
0.00010609
Loading maneuver chart data...
Computing Atmospheric mass density...
Loading historical data...
Loading historical data...
Loading historical data...
Loading historical data...
Loading historical data...
Loading historical data...
Loading historical data...
Other satellites on launch #70 in the year 1965 (1965-09-03 UTC)

Documentation

Showing up to 5 results
|